TimeCDT,TemperatureF,Dew PointF,Humidity,Sea Level PressureIn,VisibilityMPH,Wind Direction,Wind SpeedMPH,Gust SpeedMPH,PrecipitationIn,Events,Conditions,WindDirDegrees,DateUTC
12:15 AM,66.2,64.4,94,29.89,10.0,ESE,6.9,-,N/A,,Clear,120,2013-07-22 05:15:00
12:35 AM,66.2,64.4,94,29.89,10.0,ESE,4.6,-,N/A,,Clear,120,2013-07-22 05:35:00
12:55 AM,64.4,64.4,100,29.88,10.0,Calm,Calm,-,N/A,,Clear,0,2013-07-22 05:55:00
1:15 AM,64.4,62.6,94,29.88,10.0,SE,3.5,-,N/A,,Clear,130,2013-07-22 06:15:00
1:35 AM,64.4,62.6,94,29.87,10.0,Calm,Calm,-,N/A,,Clear,0,2013-07-22 06:35:00
1:55 AM,64.4,62.6,94,29.85,10.0,SE,4.6,-,N/A,,Clear,130,2013-07-22 06:55:00
2:15 AM,62.6,60.8,94,29.85,10.0,Calm,Calm,-,N/A,,Clear,0,2013-07-22 07:15:00
2:35 AM,62.6,62.6,100,29.84,10.0,Calm,Calm,-,N/A,,Clear,0,2013-07-22 07:35:00
2:55 AM,62.6,60.8,94,29.84,10.0,Calm,Calm,-,N/A,,Clear,0,2013-07-22 07:55:00
3:15 AM,60.8,60.8,100,29.84,10.0,Calm,Calm,-,N/A,,Clear,0,2013-07-22 08:15:00
3:35 AM,62.6,62.6,100,29.83,10.0,Calm,Calm,-,N/A,,Clear,0,2013-07-22 08:35:00
3:55 AM,60.8,60.8,100,29.84,7.0,Calm,Calm,-,N/A,,Clear,0,2013-07-22 08:55:00
4:15 AM,62.6,62.6,100,29.84,1.5,Calm,Calm,-,N/A,,Clear,0,2013-07-22 09:15:00
4:35 AM,60.8,59.0,94,29.84,10.0,Calm,Calm,-,N/A,,Clear,0,2013-07-22 09:35:00
4:55 AM,60.8,59.0,94,29.84,10.0,Calm,Calm,-,N/A,,Clear,0,2013-07-22 09:55:00
5:15 AM,60.8,60.8,100,29.84,1.2,Calm,Calm,-,N/A,,Clear,0,2013-07-22 10:15:00
5:35 AM,59.0,59.0,100,29.84,4.0,Calm,Calm,-,N/A,,Partly Cloudy,0,2013-07-22 10:35:00
5:55 AM,59.0,59.0,100,29.84,0.2,Calm,Calm,-,N/A,Fog,Fog,0,2013-07-22 10:55:00
6:15 AM,59.0,59.0,100,29.83,0.2,Calm,Calm,-,N/A,Fog,Fog,0,2013-07-22 11:15:00
6:35 AM,59.0,59.0,100,29.83,0.2,Calm,Calm,-,N/A,Fog,Fog,0,2013-07-22 11:35:00
6:55 AM,60.8,60.8,100,29.83,0.2,Calm,Calm,-,N/A,Fog,Fog,0,2013-07-22 11:55:00
7:15 AM,62.6,62.6,100,29.84,0.2,Calm,Calm,-,N/A,Fog,Fog,0,2013-07-22 12:15:00
7:35 AM,64.4,64.4,100,29.84,5.0,Calm,Calm,-,N/A,,Partly Cloudy,0,2013-07-22 12:35:00
7:55 AM,66.2,64.4,94,29.85,8.0,Variable,3.5,-,N/A,,Clear,0,2013-07-22 12:55:00
8:35 AM,69.8,68.0,94,29.85,7.0,South,6.9,-,N/A,,Overcast,170,2013-07-22 13:35:00
8:55 AM,68.0,66.2,94,29.85,7.0,South,5.8,-,N/A,,Overcast,180,2013-07-22 13:55:00
9:35 AM,69.8,66.2,88,29.85,10.0,SSW,5.8,-,N/A,,Mostly Cloudy,200,2013-07-22 14:35:00
9:55 AM,71.6,68.0,88,29.85,10.0,South,9.2,-,N/A,,Scattered Clouds,190,2013-07-22 14:55:00
10:15 AM,73.4,68.0,83,29.85,10.0,South,6.9,-,N/A,,Partly Cloudy,180,2013-07-22 15:15:00
10:35 AM,75.2,68.0,78,29.85,10.0,South,8.1,-,N/A,,Clear,180,2013-07-22 15:35:00
10:55 AM,77.0,68.0,74,29.84,10.0,SSE,9.2,-,N/A,,Partly Cloudy,160,2013-07-22 15:55:00
11:15 AM,78.8,68.0,69,29.83,10.0,SSE,10.4,17.3,N/A,,Partly Cloudy,160,2013-07-22 16:15:00
11:35 AM,78.8,68.0,69,29.83,10.0,South,6.9,-,N/A,,Clear,170,2013-07-22 16:35:00
11:55 AM,78.8,69.8,74,29.83,10.0,South,8.1,-,N/A,,Clear,180,2013-07-22 16:55:00
12:15 PM,80.6,69.8,70,29.82,10.0,South,6.9,12.7,N/A,,Clear,190,2013-07-22 17:15:00
12:35 PM,80.6,71.6,74,29.81,10.0,SSE,6.9,13.8,N/A,,Partly Cloudy,160,2013-07-22 17:35:00
12:55 PM,82.4,71.6,70,29.80,10.0,Variable,6.9,15.0,N/A,,Partly Cloudy,0,2013-07-22 17:55:00
1:15 PM,82.4,71.6,70,29.80,10.0,South,8.1,15.0,N/A,,Clear,170,2013-07-22 18:15:00
1:35 PM,84.2,71.6,66,29.78,10.0,South,9.2,-,N/A,,Partly Cloudy,190,2013-07-22 18:35:00
1:55 PM,84.2,73.4,70,29.78,10.0,SSW,9.2,16.1,N/A,,Partly Cloudy,200,2013-07-22 18:55:00
2:15 PM,84.2,73.4,70,29.78,10.0,South,12.7,-,N/A,,Scattered Clouds,190,2013-07-22 19:15:00
2:35 PM,86.0,73.4,66,29.77,10.0,SSW,11.5,-,N/A,,Partly Cloudy,200,2013-07-22 19:35:00
2:55 PM,86.0,73.4,66,29.78,10.0,SW,9.2,18.4,N/A,,Mostly Cloudy,220,2013-07-22 19:55:00
3:15 PM,86.0,73.4,66,29.78,10.0,SW,12.7,-,N/A,,Scattered Clouds,220,2013-07-22 20:15:00
3:35 PM,86.0,73.4,66,29.77,10.0,SSW,10.4,16.1,N/A,,Scattered Clouds,200,2013-07-22 20:35:00
3:55 PM,87.8,73.4,62,29.76,10.0,SSW,10.4,-,N/A,,Scattered Clouds,210,2013-07-22 20:55:00
4:15 PM,87.8,73.4,62,29.75,10.0,SSW,9.2,-,N/A,,Scattered Clouds,210,2013-07-22 21:15:00
4:35 PM,87.8,73.4,62,29.75,10.0,SW,9.2,-,N/A,,Scattered Clouds,220,2013-07-22 21:35:00
4:55 PM,87.8,73.4,62,29.76,10.0,SW,11.5,-,N/A,,Mostly Cloudy,220,2013-07-22 21:55:00
5:15 PM,86.0,73.4,66,29.75,10.0,SSW,8.1,-,N/A,,Scattered Clouds,210,2013-07-22 22:15:00
5:35 PM,86.0,73.4,66,29.73,10.0,SSW,9.2,-,N/A,,Partly Cloudy,200,2013-07-22 22:35:00
5:55 PM,86.0,75.2,70,29.73,10.0,South,8.1,-,N/A,,Partly Cloudy,190,2013-07-22 22:55:00
6:15 PM,84.2,75.2,74,29.74,10.0,SSW,5.8,-,N/A,,Clear,200,2013-07-22 23:15:00
6:35 PM,84.2,75.2,74,29.73,10.0,SSW,5.8,-,N/A,,Clear,200,2013-07-22 23:35:00
6:55 PM,82.4,75.2,79,29.73,10.0,South,6.9,-,N/A,,Clear,190,2013-07-22 23:55:00
7:15 PM,82.4,75.2,79,29.74,10.0,South,4.6,-,N/A,,Scattered Clouds,190,2013-07-23 00:15:00
7:35 PM,80.6,73.4,79,29.74,7.0,Calm,Calm,-,N/A,,Mostly Cloudy,0,2013-07-23 00:35:00
7:55 PM,80.6,75.2,84,29.76,10.0,West,9.2,-,N/A,,Mostly Cloudy,260,2013-07-23 00:55:00
8:15 PM,68.0,64.4,88,29.86,1.8,WNW,12.7,34.5,N/A,Rain,Heavy Rain,300,2013-07-23 01:15:00
8:35 PM,68.0,62.6,83,29.85,5.0,Calm,Calm,12.7,N/A,Rain,Light Rain,0,2013-07-23 01:35:00
8:55 PM,68.0,64.4,88,29.84,6.0,NNW,12.7,-,0.21,Rain,Rain,340,2013-07-23 01:55:00
9:15 PM,68.0,62.6,83,29.84,5.0,NNW,10.4,-,N/A,Rain,Rain,340,2013-07-23 02:15:00
9:35 PM,68.0,62.6,83,29.83,6.0,SSW,9.2,-,N/A,Rain,Light Rain,210,2013-07-23 02:35:00
9:55 PM,68.0,62.6,83,29.78,10.0,SE,12.7,-,0.10,Rain,Light Rain,140,2013-07-23 02:55:00
10:15 PM,69.8,60.8,73,29.75,10.0,SSE,16.1,-,N/A,,Light Drizzle,150,2013-07-23 03:15:00
10:35 PM,71.6,59.0,64,29.76,10.0,West,13.8,46.0,N/A,,Mostly Cloudy,280,2013-07-23 03:35:00
10:55 PM,71.6,59.0,64,29.78,-9999.0,NW,9.2,16.1,0.01,,Clear,320,2013-07-23 03:55:00
11:15 PM,69.8,60.8,73,29.79,10.0,West,6.9,-,N/A,,Clear,270,2013-07-23 04:15:00
11:35 PM,68.0,60.8,78,29.79,10.0,Calm,Calm,-,N/A,,Clear,0,2013-07-23 04:35:00
11:55 PM,68.0,60.8,78,29.78,10.0,WNW,3.5,-,N/A,,Clear,290,2013-07-23 04:55:00